Regional Weather Roundup
Issued by NWS

Home | Current Version | Previous Version | Graphics & Text | Print | Product List | Glossary On
Versions: 1 2 3 4 5 6 7 8 9 10 11 12 13 14 15 16 17 18 19 20 21 22 23 24 25 26 27 28 29 30 31 32 33 34 35 36 37 38 39 40 41 42 43 44 45 46 47 48 49 50
121
ASUS43 KOAX 141902
RWRNE

WEATHER ROUNDUP FOR NEBRASKA
NATIONAL WEATHER SERVICE OMAHA NE
100 PM CST THU DEC 14 2017

NOTES: SATELLITE DATA IS BEING USED TO AUGMENT CLOUD COVER ABOVE
       12000 FEET.
       "FAIR" INDICATES FEW OR NO CLOUDS BELOW 12,000 FEET WITH NO
       SIGNIFICANT WEATHER AND/OR OBSTRUCTIONS TO VISIBILITY.


NEZ001>004-019>022-054>056-142000-
NEBRASKA PANHANDLE

CITY           SKY/WX    TMP DP  RH WIND       PRES   REMARKS
SCOTTSBLUFF    CLOUDY    36  21  54 NW26G36   30.22S WCI  24
ALLIANCE       FLURRIES  32  24  72 N18G36    30.17R WCI  20
CHADRON        CLOUDY    35  22  58 NW14G23   30.21R WCI  26
GORDON         CLOUDY    32  26  76 N18G25    30.16S WCI  21
KIMBALL        CLOUDY    35  15  43 N36G48    30.18F WCI  21
SIDNEY         CLOUDY    36  17  46 N28G40    30.19R WCI  23
$$

NEZ057>060-069>072-079>082-142000-
SOUTHWEST NEBRASKA

CITY           SKY/WX    TMP DP  RH WIND       PRES   REMARKS
NORTH PLATTE   PTSUNNY   39  25  57 N24G39    30.14R WCI  28
IMPERIAL       CLOUDY    38  27  64 N31G39    30.16R WCI  25
LEXINGTON      CLOUDY    40  32  72 N26G33    30.11R WCI  29
MCCOOK         CLOUDY    42  28  57 N21G30    30.12F
OGALLALA       CLOUDY    39  25  56 N24G30    30.16S WCI  28
$$

NEZ005>010-023>029-035>040-094-142000-
NORTH CENTRAL NEBRASKA

CITY           SKY/WX    TMP DP  RH WIND       PRES   REMARKS
VALENTINE      CLOUDY    35  30  82 NW18G25   30.13S WCI  24
AINSWORTH      LGT SNOW  33  32  96 NW20      30.11R WCI  21
BROKEN BOW     FLURRIES  37  35  92 NW22G30   30.09R WCI  26
O`NEILL        LGT SNOW  33  33 100 NW10      30.07S WCI  25
ORD            LGT RAIN  37  35  92 NW15      30.07S WCI  28
THEDFORD       CLOUDY    34  31  86 NW15G28   30.13S WCI  25
$$

NEZ041-046>049-061>064-073>077-083>087-142000-
SOUTH CENTRAL NEBRASKA

CITY           SKY/WX    TMP DP  RH WIND       PRES   REMARKS
GRAND ISLAND   LGT RAIN  37  36  96 NW15      30.07F WCI  28
AURORA         DRIZZLE   37  35  92 NW9       30.07S WCI  31
HASTINGS       LGT RAIN  38  35  89 NW15      30.07F WCI  29
HEBRON         CLOUDY    42  32  67 NW8       30.08F
HOLDREGE       CLOUDY    41  33  73 NW16G26   30.08F
KEARNEY        LGT RAIN  40  35  83 NW17      30.07F WCI  31
YORK           LGT RAIN  36  36 100 CALM      30.07F
$$

NEZ011>018-030>034-042>045-142000-
NORTHEAST NEBRASKA

CITY           SKY/WX    TMP DP  RH WIND       PRES   REMARKS
NORFOLK        CLOUDY    38  26  62 NW8       30.04S WCI  32
ALBION         LGT SNOW  35  33  94 NW9       30.07S WCI  28
BLAIR          CLOUDY    40  26  59 NW9       30.04S WCI  33
COLUMBUS         N/A     39  28  64 NW12      30.07S WCI  32
FREMONT        CLOUDY    41  26  55 NW9       30.05F
TEKAMAH        CLOUDY    40  24  53 NW9       30.05F WCI  34
WAYNE          CLOUDY    38  25  58 NW7       30.05S WCI  33
$$

NEZ050>053-065>068-078-088>093-142000-
SOUTHEAST NEBRASKA

CITY           SKY/WX    TMP DP  RH WIND       PRES   REMARKS
LINCOLN        CLOUDY    42  26  53 W10       30.08F
OMAHA EPPLEY   CLOUDY    40  25  55 NW7       30.06S
BEATRICE       CLOUDY    43  27  54 NW10      30.06F
FALLS CITY     PTSUNNY   42  24  49 NW6       30.06F
NEBRASKA CITY  CLOUDY    42  26  53 NW12      30.05F
PLATTSMOUTH    CLOUDY    40  26  56 NW9       30.05F WCI  34
$$

NEZ044-045-051>053-067-142000-
OMAHA AREA

CITY           SKY/WX    TMP DP  RH WIND       PRES   REMARKS
OMAHA EPPLEY   CLOUDY    40  25  55 NW7       30.06S
BLAIR          CLOUDY    40  26  59 NW9       30.04S WCI  33
FREMONT        CLOUDY    41  26  55 NW9       30.05F
MILLARD        CLOUDY    42  27  55 NW8       30.06F
OFFUTT AFB     CLOUDY    41  24  51 NW6       30.05F
PLATTSMOUTH    CLOUDY    40  26  56 NW9       30.05F WCI  34
WAHOO          CLOUDY    40  25  54 NW12      30.06F WCI  34
$$




USA.gov is the U.S. government's official web portal to all federal, state and local government web resources and services.